Location: Newark
(41.0000°N, 28.9500°W)
Time: 13:37:39
(UTC+00:00)

N. Korean satellite - Pass Details

Date: 28 January 2020
Orbit: 456 x 505 km, 97.2° (Epoch: 24 February)

Event Time Altitude Azimuth Distance (km) Brightness Sun altitude
Rises 19:44:14 0° 200° (SSW) 2,459 10.7 -7.4°
Reaches altitude 10° 19:46:42 10° 219° (SW) 1,592 10.1 -7.8°
Maximum altitude 19:49:10 19° 266° (W) 1,164 9.7 -8.3°
Drops below altitude 10° 19:51:40 10° 313° (NW) 1,608 9.6 -8.7°
Sets 19:54:11 0° 332° (NNW) 2,493 10.3 -9.2°
